Regional Weather Roundup
Issued by NWS

Home | Current Version | Previous Version | Text Only | Print | Product List | Glossary Off
Versions: 1 2 3 4 5 6 7 8 9 10 11 12 13 14 15 16 17 18 19 20 21 22 23 24 25 26 27 28 29 30 31 32 33 34 35 36 37 38 39 40 41 42 43 44 45 46 47 48 49 50

000
ASUS43 KFSD 260310
RWRSD

WEATHER ROUNDUP FOR SOUTH DAKOTA
NATIONAL WEATHER SERVICE SIOUX FALLS SD
1000 PM CDT SAT MAR 25 2017

NOTE: "FAIR" INDICATES FEW OR NO CLOUDS BELOW 12,000 FEET WITH NO
SIGNIFICANT WEATHER AND/OR OBSTRUCTIONS TO VISIBILITY.


SDZ001>005-009-010-012>017-260400-
NORTHWEST AND NORTH CENTRAL SOUTH DAKOTA

CITY           SKY/WX    TMP DP  RH WIND       PRES   REMARKS
BUFFALO          N/A     51  32  48 N16       29.81F
FAITH            N/A     47  32  56 MISG      29.87R
MOBRIDGE       MOCLDY    45  32  60 SE13      29.90R
$$

SDZ012>016-024>037-041>051-057-063-072>074-260400-
SOUTHWEST AND SOUTH CENTRAL SOUTH DAKOTA

CITY           SKY/WX    TMP DP  RH WIND       PRES   REMARKS
RAPID CTY ARPT CLOUDY    53  34  48 NW12      29.81S
PIERRE         CLOUDY    42  34  73 SE17      29.90R
CUSTER         CLOUDY    44  28  53 N3        29.87R
ELLSWORTH AFB  CLOUDY    54  34  46 NW9       29.81S
PHILIP         CLOUDY    49  34  56 E13       29.84R
PINE RIDGE     CLOUDY    57  29  34 S12       29.80S
SPEARFISH      FAIR      50  36  57 N8        29.87S
WINNER         MOCLDY    41  38  89 SE24      29.90F
$$

SDZ004>011-016>023-039-040-260400-
NORTHEAST SOUTH DAKOTA

CITY           SKY/WX    TMP DP  RH WIND       PRES   REMARKS
ABERDEEN       CLOUDY    36  32  85 SE9       30.00R
WATERTOWN      CLOUDY    35  34  96 E8        30.00S FOG     WCI  29
BROOKINGS      MIX PCPN  37  36  96 E10       29.99F FOG
SISSETON         N/A     37  35  92 S12       30.02S
$$

SDZ017-020-022-023-036>040-048>070-260400-
SOUTHEAST SOUTH DAKOTA

CITY           SKY/WX    TMP DP  RH WIND       PRES   REMARKS
SIOUX FALLS    CLOUDY    40  37  89 E12       29.99S
HURON          CLOUDY    41  38  89 SE8       29.98S
CHAMBERLAIN    MOCLDY    38  37  97 E8        29.95S
MITCHELL       CLOUDY    41  40  96 SE9       29.99S FOG
YANKTON        CLOUDY    39  37  93 NE7       29.98S
$$

ABBREVIATIONS USED IN REMARKS
   TC - TEMPERATURE IN CELSIUS
  WCI - WIND CHILL INDEX
   HX - HEAT INDEX
  VSB - VISIBILITY





USA.gov is the U.S. government's official web portal to all federal, state and local government web resources and services.